"Pseudo-MPEC" for P116a0y

Created 2020 Sep 17 0:07:43 UT using Find_Orb

Click here for an explanation of pseudo-MPECs

 
 Astrometry: 
     P116a0y  C2020 09 15tf%?.aX;R;'wC\Astrometry_R!^\9%;X4T3H_TBKY;3@M(rh/JfF51
     P116a0y  C2020 09 15E/rGGT':0,/Bu/C#c@Nv[;cCi+R9qwjxIxcfM+;ko_redacted;nF51
     P116a0y  C2020 09 15X%vU:7K#Z:/fSZdclickU$YWvw@=J%Xt=here0Sv-bkx3fornYNWF51
     P116a0y  C2020 09 15y'lc7pZpMVmGs=MR3GIDT+k)*92Km=Y*g9oJGweCORkSvy-[px?kF51
     P116a0y  C2020 09 16.19781 23 35 15.63 +02 28 17.0    ~9G5M 21.7 GVNEOCPV06
     P116a0y  C2020 09 16.20257 23 35 15.45 +02 28 23.3    ~9G5M 22.0 GVNEOCPV06
     P116a0y  C2020 09 16.20732 23 35 15.31 +02 28 29.4    ~9G5M 21.8 GVNEOCPV06
     P116a0y  C2020 09 16.21207 23 35 15.17 +02 28 35.7    ~9G5M 22.2 GVNEOCPV06
     P116a0y KC2020 09 1652QY3ed!Xp\ffZ+0c]!4T#IJ!h$G$jc/JwNhxa,HCr4#WDg;y]).711
     P116a0y KC2020 09 16aRXbA7/y[Mb+J7sx$ARlE07f%jI.x0`1M[6Z]cwig4CfvGa):`9+711
     P116a0y KC2020 09 16LOv(,fmYoexplanationp\R3Yu!G8DghFOq:5dE\N8bVx)#X+r(A711
     P116a0y ^C2020 09 16.32023523 35 12.908+02 31 00.97   ~9G97 21.56GVNEOCP568
     P116a0y ^C2020 09 16.32214723 35 12.849+02 31 03.46   ~9G97 21.66GVNEOCP568

Station data:
(568) Mauna Kea  (N19.826116 W155.472200)  US/Hawaii.
(711) McDonald Observatory, Fort Davis  (N30.671481 W104.021500)  US/Texas.
   0.76-m f/3.0 reflector.
(F51) Pan-STARRS 1, Haleakala  (N20.707235 W156.255910)  US/Hawaii.
   Observers N. Primak, A. Schultz, S. Watters, J. Thiel, T. Goggia. Measurer
   PS1 Science Consortium. 1.8-m Ritchey-Chrétien + CCD.
(V06) Catalina Sky Survey-Kuiper  (N32.416847 W110.732550)  US/Arizona.
   Observers T. A. Pruyne, B. M. Africano, E. J. Christensen, G. A. Farneth,
   D. C. Fuls, A. R. Gibbs, A. D. Grauer, H. Gröller, J. A. Johnson, R. A.
   Kowalski, S. M. Larson, G. J. Leonard, D. Rankin, R. L. Seaman, F. C.
   Shelly. 1.55-m reflector + CCD.

Orbital elements:  P116a0y
   Perihelion 2020 Oct 1.560928 +/- 12.9 TT = 13:27:44 (JD 2459124.060928)
Epoch 2020 Sep 16.0 TT = JDT 2459108.5   Earth MOID: 0.3624   Ma: 0.0352
M 355.99577704 +/- 3.0              (J2000 ecliptic)          AutoNEOCP
n   0.25732546 +/- 0.0124           Peri.   20.96100 +/- 10
a   2.44801573 +/- 0.0786           Node   344.50710 +/- 0.20
e   0.4437591 +/- 0.0227            Incl.    7.61839 +/- 0.19
P   3.83                   H 23.4   G  0.15   U  9.8  
q 1.36168638 +/- 0.021    Q 3.53434509 +/- 0.172
From 13 observations 2020 Sept. 15-16 (22.2 hr); mean residual 0".21
Residuals in arcseconds: 
200915 F51  .24-  .10+    200916 V06  .05-  .13+    200916 711  .23+  .11-    
200915 F51  .15+  .08-    200916 V06  .03-  .04+    200916 568  .17-  .22+    
200915 F51  .01+  .01+    200916 V06  .01-  .16+    200916 568  .19-  .22+    
200915 F51  .02+  .05-    200916 711  .02+  .69-    
200916 V06  .54+  .03+    200916 711  .18-  .00     

Ephemerides (geocentric):
Date (UTC) HH   RA              Dec         delta   r     elong  mag " sig PA
---- -- -- --  -------------   -----------  ------ ------ -----  --- ---- ---
2020 09 17 00  23 34 56.519   +02 45 49.87  .36509 1.3692 174.9 22.2 .869 177
2020 09 17 01  23 34 55.571   +02 46 43.85  .36506 1.3691 174.9 22.2 .965 176
2020 09 17 02  23 34 54.623   +02 47 37.83  .36503 1.3691 174.8 22.2 1.06 176
2020 09 17 03  23 34 53.676   +02 48 31.80  .36501 1.3690 174.8 22.2 1.17 175
2020 09 17 04  23 34 52.728   +02 49 25.77  .36498 1.3690 174.8 22.2 1.27 174
2020 09 17 05  23 34 51.781   +02 50 19.72  .36495 1.3689 174.8 22.2 1.38 174
2020 09 17 06  23 34 50.833   +02 51 13.67  .36492 1.3689 174.8 22.2 1.49 173
2020 09 17 07  23 34 49.886   +02 52 07.61  .36490 1.3689 174.8 22.2 1.61 173
2020 09 17 08  23 34 48.939   +02 53 01.55  .36487 1.3688 174.8 22.2 1.73 173
2020 09 17 09  23 34 47.991   +02 53 55.47  .36484 1.3688 174.8 22.2 1.86 172
2020 09 17 10  23 34 47.044   +02 54 49.39  .36482 1.3687 174.8 22.2 1.98 172
2020 09 17 11  23 34 46.097   +02 55 43.30  .36479 1.3687 174.8 22.2 2.12 172
2020 09 17 12  23 34 45.151   +02 56 37.20  .36477 1.3687 174.8 22.2 2.25 171
2020 09 17 13  23 34 44.204   +02 57 31.10  .36474 1.3686 174.7 22.2 2.39 171
2020 09 17 14  23 34 43.258   +02 58 24.98  .36472 1.3686 174.7 22.2 2.53 171
2020 09 17 15  23 34 42.312   +02 59 18.86  .36469 1.3685 174.7 22.2 2.68 171
2020 09 17 16  23 34 41.365   +03 00 12.73  .36467 1.3685 174.7 22.2 2.83 171
2020 09 17 17  23 34 40.420   +03 01 06.59  .36465 1.3685 174.7 22.2 2.98 170
2020 09 17 18  23 34 39.474   +03 02 00.44  .36462 1.3684 174.7 22.2 3.13 170
2020 09 17 19  23 34 38.529   +03 02 54.28  .36460 1.3684 174.7 22.2 3.29 170
2020 09 17 20  23 34 37.583   +03 03 48.12  .36457 1.3683 174.7 22.2 3.46 170
2020 09 17 21  23 34 36.639   +03 04 41.94  .36455 1.3683 174.6 22.2 3.62 170
2020 09 17 22  23 34 35.694   +03 05 35.76  .36453 1.3683 174.6 22.2 3.80 170
2020 09 17 23  23 34 34.749   +03 06 29.57  .36451 1.3682 174.6 22.2 3.97 170
2020 09 18 00  23 34 33.805   +03 07 23.37  .36448 1.3682 174.6 22.2 4.15 169
2020 09 18 01  23 34 32.861   +03 08 17.16  .36446 1.3681 174.6 22.2 4.33 169
2020 09 18 02  23 34 31.918   +03 09 10.94  .36444 1.3681 174.6 22.2 4.51 169
2020 09 18 03  23 34 30.975   +03 10 04.71  .36442 1.3681 174.6 22.2 4.70 169
2020 09 18 04  23 34 30.032   +03 10 58.48  .36440 1.3680 174.5 22.2 4.89 169
2020 09 18 05  23 34 29.089   +03 11 52.23  .36438 1.3680 174.5 22.2 5.09 169
2020 09 18 06  23 34 28.147   +03 12 45.98  .36436 1.3679 174.5 22.2 5.29 169
2020 09 18 07  23 34 27.205   +03 13 39.71  .36434 1.3679 174.5 22.2 5.49 169
2020 09 18 08  23 34 26.264   +03 14 33.44  .36432 1.3679 174.5 22.2 5.70 169
2020 09 18 09  23 34 25.323   +03 15 27.15  .36430 1.3678 174.5 22.2 5.91 169
2020 09 18 10  23 34 24.382   +03 16 20.86  .36428 1.3678 174.4 22.2 6.12 169
2020 09 18 11  23 34 23.441   +03 17 14.56  .36426 1.3677 174.4 22.2 6.34 168
2020 09 18 12  23 34 22.501   +03 18 08.25  .36424 1.3677 174.4 22.2 6.56 168
2020 09 18 13  23 34 21.562   +03 19 01.92  .36422 1.3677 174.4 22.2 6.78 168
2020 09 18 14  23 34 20.623   +03 19 55.59  .36420 1.3676 174.4 22.2 7.01 168
2020 09 18 15  23 34 19.684   +03 20 49.25  .36418 1.3676 174.4 22.2 7.24 168
2020 09 18 16  23 34 18.746   +03 21 42.90  .36417 1.3676 174.3 22.2 7.48 168
2020 09 18 17  23 34 17.808   +03 22 36.54  .36415 1.3675 174.3 22.2 7.71 168
2020 09 18 18  23 34 16.871   +03 23 30.17  .36413 1.3675 174.3 22.2 7.96 168
2020 09 18 19  23 34 15.934   +03 24 23.79  .36411 1.3674 174.3 22.2 8.20 168
2020 09 18 20  23 34 14.998   +03 25 17.39  .36410 1.3674 174.3 22.2 8.45 168
2020 09 18 21  23 34 14.062   +03 26 10.99  .36408 1.3674 174.2 22.2 8.70 168
2020 09 18 22  23 34 13.127   +03 27 04.58  .36406 1.3673 174.2 22.2 8.96 168
2020 09 18 23  23 34 12.192   +03 27 58.16  .36405 1.3673 174.2 22.2 9.22 168